| time (UTC) | temp F | wind direction | speed MPH | gust MPH | rain 1hr in | rain 24hr in | rain mn in | humidity % | barometer mb |
| 20260508191831 | 75 | 24 | 5.0 | 10.0 | 0.00 | 0.00 | 0.00 | 65 | 1011.8 |
| 20260508191131 | 76 | 21 | 2.0 | 10.0 | 0.00 | 0.00 | 0.00 | 65 | 1011.8 |
| 20260508190431 | 76 | 54 | 14.0 | 14.0 | 0.00 | 0.00 | 0.00 | 64 | 1011.8 |
| 20260508185731 | 76 | 58 | 8.0 | 14.0 | 0.00 | 0.00 | 0.00 | 64 | 1011.8 |
| 20260508185031 | 76 | 31 | 8.0 | 14.0 | 0.00 | 0.00 | 0.00 | 64 | 1012.1 |
| 20260508183631 | 77 | 122 | 5.0 | 14.0 | 0.00 | 0.00 | 0.00 | 63 | 1012.1 |
| 20260508182931 | 77 | 21 | 5.0 | 14.0 | 0.00 | 0.00 | 0.00 | 63 | 1012.4 |
| 20260508182231 | 78 | 56 | 5.0 | 14.0 | 0.00 | 0.00 | 0.00 | 62 | 1012.1 |
| 20260508181531 | 78 | 41 | 2.0 | 10.0 | 0.00 | 0.00 | 0.00 | 63 | 1012.4 |
| 20260508180831 | 78 | 22 | 2.0 | 10.0 | 0.00 | 0.00 | 0.00 | 64 | 1012.8 |
| 20260508180131 | 77 | 53 | 2.0 | 10.0 | 0.00 | 0.00 | 0.00 | 64 | 1012.8 |
| 20260508175431 | 77 | 22 | 8.0 | 10.0 | 0.00 | 0.00 | 0.00 | 63 | 1012.8 |
| 20260508174731 | 77 | 9 | 5.0 | 10.0 | 0.00 | 0.00 | 0.00 | 64 | 1012.8 |
| 20260508174031 | 77 | 77 | 11.0 | 10.0 | 0.00 | 0.00 | 0.00 | 64 | 1013.1 |
| 20260508172633 | 75 | 11 | 5.0 | 10.0 | 0.00 | 0.00 | 0.00 | 66 | 1013.1 |
| 20260508171931 | 74 | 26 | 2.0 | 10.0 | 0.00 | 0.00 | 0.00 | 66 | 1013.1 |
| 20260508171304 | 73 | 31 | 5.0 | 10.0 | 0.00 | 0.00 | 0.00 | 67 | 1013.1 |
| 20260508170532 | 73 | 12 | 2.0 | 10.0 | 0.00 | 0.00 | 0.00 | 66 | 1013.5 |
| 20260508164432 | 73 | 42 | 5.0 | 8.0 | 0.00 | 0.00 | 0.00 | 67 | 1014.1 |
| 20260508163732 | 73 | 17 | 5.0 | 12.0 | 0.00 | 0.00 | 0.00 | 67 | 1014.1 |
| 20260508160233 | 72 | 334 | 2.0 | 12.0 | 0.00 | 0.00 | 0.00 | 68 | 1014.5 |
| 20260508155532 | 71 | 31 | 8.0 | 12.0 | 0.00 | 0.00 | 0.00 | 69 | 1014.8 |
| 20260508154132 | 70 | 12 | 5.0 | 8.0 | 0.00 | 0.00 | 0.00 | 69 | 1014.8 |
| 20260508153432 | 69 | 15 | 5.0 | 8.0 | 0.00 | 0.00 | 0.00 | 70 | 1015.1 |
| 20260508150632 | 69 | 52 | 5.0 | 10.0 | 0.00 | 0.00 | 0.00 | 70 | 1015.1 |
| 20260508145932 | 69 | 31 | 5.0 | 10.0 | 0.00 | 0.00 | 0.00 | 70 | 1015.1 |
| 20260508145232 | 68 | 22 | 2.0 | 10.0 | 0.00 | 0.00 | 0.00 | 71 | 1014.8 |
| 20260508144533 | 68 | 75 | 8.0 | 10.0 | 0.00 | 0.00 | 0.00 | 71 | 1014.8 |
| 20260508143832 | 68 | 18 | 5.0 | 10.0 | 0.00 | 0.00 | 0.00 | 72 | 1014.8 |
| 20260508143132 | 67 | 10 | 0.0 | 10.0 | 0.00 | 0.00 | 0.00 | 72 | 1015.1 |
| 20260508142432 | 67 | 49 | 5.0 | 10.0 | 0.00 | 0.00 | 0.00 | 72 | 1015.1 |
| 20260508141732 | 67 | 51 | 11.0 | 10.0 | 0.00 | 0.00 | 0.00 | 73 | 1015.1 |
| 20260508135632 | 66 | 53 | 2.0 | 10.0 | 0.00 | 0.00 | 0.00 | 76 | 1015.5 |
| 20260508134932 | 66 | 15 | 5.0 | 10.0 | 0.00 | 0.00 | 0.00 | 77 | 1015.1 |
| 20260508134232 | 65 | 33 | 5.0 | 10.0 | 0.00 | 0.00 | 0.00 | 78 | 1015.5 |
| 20260508133532 | 64 | 74 | 8.0 | 8.0 | 0.00 | 0.00 | 0.00 | 79 | 1015.1 |
| 20260508132832 | 64 | 8 | 2.0 | 8.0 | 0.00 | 0.00 | 0.00 | 81 | 1015.1 |
| 20260508132132 | 63 | 43 | 5.0 | 8.0 | 0.00 | 0.00 | 0.00 | 82 | 1015.5 |
| 20260508131432 | 62 | 44 | 0.0 | 6.0 | 0.00 | 0.00 | 0.00 | 84 | 1015.5 |
| 20260508130732 | 62 | 13 | 0.0 | 0.0 | 0.00 | 0.00 | 0.00 | 85 | 1015.5 |
| 20260508130031 | 61 | 5 | 0.0 | 0.0 | 0.00 | 0.00 | 0.00 | 85 | 1015.8 |
| 20260508125532 | 61 | 5 | 0.0 | 0.0 | 0.00 | 0.00 | 0.00 | 85 | 1015.8 |
| 20260508124832 | 60 | 5 | 0.0 | 0.0 | 0.00 | 0.00 | 0.00 | 86 | 1015.5 |
| 20260508124132 | 60 | 5 | 0.0 | 0.0 | 0.00 | 0.00 | 0.00 | 85 | 1015.8 |
| 20260508123432 | 60 | 5 | 0.0 | 0.0 | 0.00 | 0.00 | 0.00 | 85 | 1015.5 |
| 20260508122732 | 60 | 5 | 0.0 | 0.0 | 0.00 | 0.00 | 0.00 | 85 | 1015.5 |
| 20260508122031 | 60 | 5 | 0.0 | 2.0 | 0.00 | 0.00 | 0.00 | 84 | 1015.1 |
| 20260508121332 | 60 | 10 | 0.0 | 2.0 | 0.00 | 0.00 | 0.00 | 84 | 1015.5 |
| 20260508120633 | 60 | 6 | 0.0 | 2.0 | 0.00 | 0.00 | 0.00 | 84 | 1015.5 |
| 20260508115932 | 60 | 6 | 0.0 | 2.0 | 0.00 | 0.00 | 0.00 | 84 | 1015.5 |
| 20260508115232 | 60 | 6 | 0.0 | 2.0 | 0.00 | 0.00 | 0.00 | 84 | 1015.5 |
| 20260508114532 | 60 | 5 | 0.0 | 2.0 | 0.00 | 0.00 | 0.00 | 84 | 1015.5 |
| 20260508113831 | 60 | 5 | 0.0 | 2.0 | 0.00 | 0.00 | 0.00 | 84 | 1015.5 |
| 20260508113132 | 60 | 8 | 0.0 | 2.0 | 0.00 | 0.00 | 0.00 | 83 | 1015.5 |
| 20260508112431 | 60 | 7 | 0.0 | 2.0 | 0.00 | 0.00 | 0.00 | 83 | 1015.5 |
| 20260508110331 | 60 | 8 | 0.0 | 2.0 | 0.00 | 0.00 | 0.00 | 83 | 1015.8 |
| 20260508105631 | 60 | 3 | 0.0 | 2.0 | 0.00 | 0.00 | 0.00 | 83 | 1015.8 |
| 20260508104932 | 59 | 3 | 0.0 | 2.0 | 0.00 | 0.00 | 0.00 | 82 | 1015.5 |
| 20260508104232 | 60 | 3 | 0.0 | 2.0 | 0.00 | 0.00 | 0.00 | 82 | 1015.1 |
| 20260508103531 | 60 | 3 | 0.0 | 2.0 | 0.00 | 0.00 | 0.00 | 82 | 1014.8 |
| 20260508102832 | 60 | 5 | 0.0 | 2.0 | 0.00 | 0.00 | 0.00 | 82 | 1014.5 |
| 20260508102131 | 60 | 7 | 0.0 | 2.0 | 0.00 | 0.00 | 0.00 | 82 | 1014.5 |
| 20260508101432 | 60 | 13 | 2.0 | 2.0 | 0.00 | 0.00 | 0.00 | 81 | 1014.5 |
| 20260508100732 | 60 | 8 | 0.0 | 0.0 | 0.00 | 0.00 | 0.00 | 81 | 1014.5 |
| 20260508100032 | 60 | 8 | 0.0 | 0.0 | 0.00 | 0.00 | 0.00 | 81 | 1014.8 |
| 20260508093932 | 61 | 4 | 0.0 | 6.0 | 0.00 | 0.00 | 0.00 | 80 | 1014.8 |
| 20260508093231 | 61 | 4 | 0.0 | 6.0 | 0.00 | 0.00 | 0.00 | 80 | 1014.8 |
| 20260508092531 | 61 | 3 | 0.0 | 6.0 | 0.00 | 0.00 | 0.00 | 80 | 1015.1 |
| 20260508091831 | 62 | 14 | 0.0 | 6.0 | 0.00 | 0.00 | 0.00 | 79 | 1014.8 |
| 20260508091131 | 62 | 7 | 0.0 | 6.0 | 0.00 | 0.00 | 0.00 | 79 | 1014.8 |
| 20260508090431 | 62 | 6 | 0.0 | 6.0 | 0.00 | 0.00 | 0.00 | 79 | 1014.8 |
| 20260508085031 | 62 | 24 | 5.0 | 6.0 | 0.00 | 0.00 | 0.00 | 79 | 1014.8 |
| 20260508084331 | 62 | 8 | 2.0 | 4.0 | 0.00 | 0.00 | 0.00 | 79 | 1014.8 |
| 20260508083631 | 62 | 13 | 0.0 | 2.0 | 0.00 | 0.00 | 0.00 | 79 | 1015.1 |
| 20260508080831 | 62 | 9 | 0.0 | 0.0 | 0.00 | 0.00 | 0.00 | 79 | 1016.2 |
| 20260508080132 | 62 | 5 | 0.0 | 0.0 | 0.00 | 0.00 | 0.00 | 79 | 1015.8 |
| 20260508075433 | 62 | 4 | 0.0 | 0.0 | 0.00 | 0.00 | 0.00 | 79 | 1016.2 |
| 20260508074731 | 62 | 8 | 0.0 | 0.0 | 0.00 | 0.00 | 0.00 | 79 | 1016.2 |
| 20260508074031 | 62 | 8 | 0.0 | 0.0 | 0.00 | 0.00 | 0.00 | 79 | 1015.8 |
| 20260508073331 | 62 | 8 | 0.0 | 0.0 | 0.00 | 0.00 | 0.00 | 79 | 1015.8 |
| 20260508072631 | 62 | 2 | 0.0 | 0.0 | 0.00 | 0.00 | 0.00 | 78 | 1015.8 |
| 20260508071931 | 62 | 13 | 0.0 | 0.0 | 0.00 | 0.00 | 0.00 | 78 | 1015.5 |
| 20260508071231 | 62 | 10 | 0.0 | 0.0 | 0.00 | 0.00 | 0.00 | 78 | 1016.2 |
| 20260508070531 | 62 | 10 | 0.0 | 0.0 | 0.00 | 0.00 | 0.00 | 78 | 1016.2 |
| 20260508065831 | 62 | 11 | 0.0 | 0.0 | 0.00 | 0.00 | 0.00 | 78 | 1015.8 |
| 20260508065131 | 62 | 11 | 0.0 | 0.0 | 0.00 | 0.00 | 0.00 | 78 | 1015.8 |
| 20260508064431 | 62 | 11 | 0.0 | 0.0 | 0.00 | 0.00 | 0.00 | 78 | 1016.2 |
| 20260508063031 | 61 | 11 | 0.0 | 0.0 | 0.00 | 0.00 | 0.00 | 78 | 1016.2 |
| 20260508061631 | 61 | 10 | 0.0 | 0.0 | 0.00 | 0.00 | 0.00 | 78 | 1016.5 |
| 20260508054831 | 61 | 11 | 0.0 | 0.0 | 0.00 | 0.00 | 0.00 | 78 | 1016.5 |
| 20260508054131 | 61 | 10 | 0.0 | 0.0 | 0.00 | 0.00 | 0.00 | 77 | 1016.8 |
| 20260508052731 | 61 | 10 | 0.0 | 0.0 | 0.00 | 0.00 | 0.00 | 77 | 1016.5 |
| 20260508052031 | 62 | 10 | 0.0 | 0.0 | 0.00 | 0.00 | 0.00 | 77 | 1016.5 |
| 20260508051331 | 62 | 10 | 0.0 | 0.0 | 0.00 | 0.00 | 0.00 | 76 | 1016.5 |
| 20260508050631 | 62 | 10 | 0.0 | 0.0 | 0.00 | 0.00 | 0.00 | 76 | 1016.5 |
| 20260508045231 | 62 | 9 | 0.0 | 0.0 | 0.00 | 0.00 | 0.00 | 76 | 1016.5 |
| 20260508044532 | 62 | 9 | 0.0 | 0.0 | 0.00 | 0.00 | 0.00 | 75 | 1016.5 |
| 20260508043831 | 62 | 9 | 0.0 | 0.0 | 0.00 | 0.00 | 0.00 | 75 | 1016.5 |
| 20260508042431 | 62 | 8 | 0.0 | 0.0 | 0.00 | 0.00 | 0.00 | 75 | 1016.5 |
| 20260508041731 | 62 | 9 | 0.0 | 0.0 | 0.00 | 0.00 | 0.00 | 75 | 1016.2 |
| 20260508040331 | 62 | 8 | 0.0 | 0.0 | 0.00 | 0.00 | 0.00 | 74 | 1016.2 |
| 20260508035631 | 62 | 8 | 0.0 | 0.0 | 0.00 | 0.00 | 0.00 | 73 | 1016.5 |
| 20260508034932 | 62 | 8 | 0.0 | 0.0 | 0.00 | 0.00 | 0.00 | 73 | 1016.5 |
| 20260508034231 | 62 | 8 | 0.0 | 0.0 | 0.00 | 0.00 | 0.00 | 73 | 1016.2 |
| 20260508032832 | 63 | 8 | 0.0 | 0.0 | 0.00 | 0.00 | 0.00 | 72 | 1016.2 |
| 20260508032131 | 63 | 8 | 0.0 | 0.0 | 0.00 | 0.00 | 0.00 | 72 | 1015.8 |
| 20260508031431 | 63 | 8 | 0.0 | 0.0 | 0.00 | 0.00 | 0.00 | 72 | 1015.8 |
| 20260508030731 | 63 | 5 | 0.0 | 0.0 | 0.00 | 0.00 | 0.00 | 71 | 1016.2 |
| 20260508030031 | 63 | 3 | 0.0 | 0.0 | 0.00 | 0.00 | 0.00 | 71 | 1015.8 |
| 20260508022530 | 64 | 4 | 0.0 | 0.0 | 0.00 | 0.00 | 0.00 | 69 | 1016.2 |
| 20260508021830 | 64 | 4 | 0.0 | 0.0 | 0.00 | 0.00 | 0.00 | 68 | 1015.8 |
| 20260508021130 | 64 | 4 | 0.0 | 0.0 | 0.00 | 0.00 | 0.00 | 68 | 1015.8 |
| 20260508020431 | 64 | 3 | 0.0 | 0.0 | 0.00 | 0.00 | 0.00 | 67 | 1015.8 |
| 20260508015730 | 65 | 8 | 0.0 | 2.0 | 0.00 | 0.00 | 0.00 | 67 | 1015.5 |
| 20260508015031 | 65 | 8 | 0.0 | 2.0 | 0.00 | 0.00 | 0.00 | 67 | 1015.8 |
| 20260508013630 | 66 | 8 | 0.0 | 2.0 | 0.00 | 0.00 | 0.00 | 65 | 1015.5 |
| 20260508012931 | 66 | 9 | 0.0 | 2.0 | 0.00 | 0.00 | 0.00 | 65 | 1015.8 |
| 20260508012231 | 66 | 6 | 0.0 | 2.0 | 0.00 | 0.00 | 0.00 | 64 | 1015.8 |
| 20260508011531 | 66 | 8 | 0.0 | 6.0 | 0.00 | 0.00 | 0.00 | 64 | 1015.5 |
| 20260508010831 | 66 | 9 | 0.0 | 6.0 | 0.00 | 0.00 | 0.00 | 64 | 1015.8 |
| 20260508005431 | 67 | 10 | 0.0 | 6.0 | 0.00 | 0.00 | 0.00 | 63 | 1015.5 |
| 20260508004731 | 67 | 10 | 0.0 | 6.0 | 0.00 | 0.00 | 0.00 | 63 | 1015.8 |
| 20260508004030 | 67 | 3 | 0.0 | 6.0 | 0.00 | 0.00 | 0.00 | 62 | 1015.8 |
| 20260507235830 | 68 | 22 | 2.0 | 8.0 | 0.00 | 0.00 | 0.00 | 60 | 1015.8 |
| 20260507235133 | 68 | 14 | 5.0 | 8.0 | 0.00 | 0.00 | 0.00 | 61 | 1015.5 |
| 20260507234435 | 69 | 60 | 2.0 | 10.0 | 0.00 | 0.00 | 0.00 | 61 | 1015.8 |
| 20260507233733 | 69 | 14 | 8.0 | 10.0 | 0.00 | 0.00 | 0.00 | 61 | 1015.8 |
| 20260507232333 | 69 | 346 | 5.0 | 10.0 | 0.00 | 0.00 | 0.00 | 60 | 1015.8 |
| 20260507230934 | 69 | 34 | 5.0 | 10.0 | 0.00 | 0.00 | 0.00 | 60 | 1015.8 |
| 20260507230233 | 69 | 40 | 5.0 | 10.0 | 0.00 | 0.00 | 0.00 | 60 | 1015.8 |
| 20260507225533 | 70 | 15 | 2.0 | 8.0 | 0.00 | 0.00 | 0.00 | 60 | 1015.8 |
| 20260507224133 | 70 | 24 | 5.0 | 10.0 | 0.00 | 0.00 | 0.00 | 59 | 1015.8 |
| 20260507222733 | 70 | 27 | 2.0 | 10.0 | 0.00 | 0.00 | 0.00 | 59 | 1015.8 |
| 20260507222033 | 70 | 5 | 0.0 | 10.0 | 0.00 | 0.00 | 0.00 | 58 | 1016.2 |
| 20260507214533 | 72 | 7 | 0.0 | 6.0 | 0.00 | 0.00 | 0.00 | 55 | 1015.8 |
| 20260507213833 | 72 | 2 | 0.0 | 6.0 | 0.00 | 0.00 | 0.00 | 55 | 1016.5 |
| 20260507213133 | 72 | 0 | 0.0 | 6.0 | 0.00 | 0.00 | 0.00 | 55 | 1016.5 |
| 20260507212433 | 72 | 19 | 8.0 | 6.0 | 0.00 | 0.00 | 0.00 | 55 | 1016.5 |
| 20260507211733 | 72 | 7 | 2.0 | 6.0 | 0.00 | 0.00 | 0.00 | 55 | 1016.5 |
| 20260507211033 | 72 | 6 | 0.0 | 6.0 | 0.00 | 0.00 | 0.00 | 54 | 1016.5 |
| 20260507210333 | 72 | 38 | 5.0 | 6.0 | 0.00 | 0.00 | 0.00 | 55 | 1016.5 |
| 20260507205633 | 72 | 10 | 5.0 | 6.0 | 0.00 | 0.00 | 0.00 | 54 | 1016.8 |
| 20260507204933 | 73 | 44 | 5.0 | 6.0 | 0.00 | 0.00 | 0.00 | 54 | 1016.5 |
| 20260507204232 | 73 | 12 | 0.0 | 6.0 | 0.00 | 0.00 | 0.00 | 53 | 1016.5 |
| 20260507203533 | 73 | 39 | 5.0 | 8.0 | 0.00 | 0.00 | 0.00 | 53 | 1016.5 |
| 20260507202833 | 73 | 20 | 0.0 | 8.0 | 0.00 | 0.00 | 0.00 | 53 | 1016.2 |
| 20260507202132 | 73 | 359 | 5.0 | 8.0 | 0.00 | 0.00 | 0.00 | 52 | 1016.8 |
| 20260507201433 | 73 | 9 | 0.0 | 8.0 | 0.00 | 0.00 | 0.00 | 52 | 1016.8 |
| 20260507200733 | 73 | 4 | 2.0 | 8.0 | 0.00 | 0.00 | 0.00 | 52 | 1016.8 |
| 20260507200033 | 73 | 8 | 0.0 | 8.0 | 0.00 | 0.00 | 0.00 | 52 | 1017.2 |
| 20260507195333 | 73 | 356 | 2.0 | 8.0 | 0.00 | 0.00 | 0.00 | 52 | 1017.2 |
| 20260507194633 | 74 | 22 | 8.0 | 8.0 | 0.00 | 0.00 | 0.00 | 52 | 1017.2 |
| 20260507193932 | 74 | 11 | 2.0 | 8.0 | 0.00 | 0.00 | 0.00 | 51 | 1017.5 |
| 20260507193232 | 74 | 5 | 5.0 | 8.0 | 0.00 | 0.00 | 0.00 | 52 | 1017.5 |